1335398432806,19.8163
1335398492806,19.7635
1335398552806,19.8351
1335398612806,19.7788
1335398672806,19.8066
1335398732806,19.7938
1335398792806,19.7725
1335398852806,19.8243
1335398912806,19.7404
1335398972806,19.7229
1335399032806,19.6978
1335399092806,19.7158
1335399152806,19.8077
1335399212806,19.7440
1335399272806,19.7319
1335399332806,19.7645
1335399392806,19.7110
1335399452806,19.6793
1335399512806,19.7346
1335399572806,19.7800
1335399632806,19.8047
1335399692806,19.7830
1335399752806,19.7672
1335399812806,19.7688
1335399872806,19.8185
1335399932806,19.8496
1335399992806,19.7241
1335400052806,19.7998
1335400112806,19.7647
1335400172806,19.7608
1335400232806,19.7829
1335400292806,19.7341
1335400352806,19.7413
1335400412806,19.8246
1335400472806,19.8186
1335400532806,19.7772
1335400592806,19.7748
1335400652806,19.7741
1335400712806,19.7253
1335400772806,19.6573
1335400832806,19.7460
1335400892806,19.6962
1335400952806,19.7153
1335401012806,19.7284
1335401072806,19.7014
1335401132806,19.7358
1335401192806,19.7617
1335401252806,19.7069
1335401312806,19.6784
1335401372806,19.6854
1335401432806,19.7112
1335401492806,19.6878
1335401552806,19.7351
1335401612806,19.6872
1335401672806,19.7219
1335401732806,19.6840
1335401792806,19.7369
1335401852806,19.7207
1335401912806,19.7030
1335401972806,19.7176
1335402032817,19.6742
1335402092817,19.6964
1335402152817,19.6797
1335402212817,19.7166
1335402272817,19.7652
1335402332817,19.7450
1335402392817,19.6973
1335402452817,19.7997
1335402512817,19.7464
1335402572817,19.7984
1335402632817,19.8176
1335402692817,19.7032
1335402752817,19.8042
1335402812817,19.7672
1335402872817,19.8318
1335402932817,19.8533
1335402992817,19.8238
1335403052817,19.8182
1335403112817,19.8694
1335403172817,19.8848
1335403232817,19.8324
1335403292817,19.8967
1335403352817,19.8455
1335403412817,19.9558
1335403472817,19.8924
1335403532817,20.0179
1335403592817,19.9798
1335403652817,19.9867
1335403712817,20.0212
1335403772817,19.9767
1335403832817,19.9464
1335403892817,19.9190
1335403952817,19.9314
1335404012817,19.9134
1335404072817,19.8762
1335404132817,19.9221
1335404192817,19.9380
1335404252817,19.9305
1335404312817,19.9047
1335404372817,19.9164
1335404432817,19.9589
1335404492817,19.9475
1335404552817,20.0252
1335404612817,19.9361
1335404672817,19.9391
1335404732817,19.9122
1335404792817,19.9442
1335404852817,20.0044
1335404912817,19.9912
1335404972817,19.9852
1335405032817,19.9733
1335405092817,19.9530
1335405152817,19.9788
1335405212817,19.9882
1335405272817,19.9458
1335405332817,20.0170
1335405392817,19.9402
1335405452817,20.0035
1335405512817,19.9616
1335405572817,19.9746
1335405632828,19.9438
1335405692828,19.9240
1335405752828,19.9139
1335405812828,19.8875
1335405872828,19.9121
1335405932828,19.9639
1335405992828,19.9394
1335406052828,19.9233
1335406112828,19.8441
1335406172828,19.9358
1335406232828,19.9084
1335406292828,19.8719
1335406352828,19.8392
1335406412828,19.8480
1335406472828,19.8082
1335406532828,19.8751
1335406592828,19.8377
1335406652828,19.8503
1335406712828,19.8451
1335406772828,19.8450
1335406832828,19.8588
1335406892828,19.7787
1335406952828,19.8015
1335407012828,19.8374
1335407072828,19.8127
1335407132828,19.8268
1335407192828,19.8023
1335407252828,19.7932
1335407312828,19.8094
1335407372828,19.8120
1335407432828,19.8085
1335407492828,19.7934
1335407552828,19.8065
1335407612828,19.7360
1335407672828,19.8483
1335407732828,19.7993
1335407792828,19.7796
1335407852828,19.8113
1335407912828,19.8272
1335407972828,19.8265
1335408032828,19.7842
1335408092828,19.7667
1335408152828,19.7697
1335408212828,19.7774
1335408272828,19.7863
1335408332828,19.7667
1335408392828,19.8018
1335408452828,19.7959
1335408512828,19.7596
1335408572828,19.7118
1335408632828,19.7079
1335408692828,19.6524
1335408752828,19.7401
1335408812828,19.6861
1335408872828,19.7279
1335408932828,19.7139
1335408992828,19.6910
1335409052828,19.6792
1335409112828,19.6753
1335409172828,19.6414
1335409232839,19.6970
1335409292839,19.6977
1335409352839,19.6636
1335409412838,19.6960
1335409472838,19.7101
1335409532838,19.6509
1335409592838,19.6509
1335409652838,19.6569
1335409712838,19.6374
1335409772838,19.6958
1335409832838,19.7572
1335409892838,19.7097
1335409952838,19.6781
1335410012838,19.6690
1335410072838,19.7240
1335410132838,19.6968
1335410192838,19.6513
1335410252838,19.5990
1335410312838,19.7004
1335410372838,19.6496
1335410432838,19.6561
1335410492839,19.6519
1335410552839,19.6993
1335410612839,19.7031
1335410672839,19.6286
1335410732839,19.6232
1335410792838,19.7646
1335410852838,19.7081
1335410912838,19.6980
1335410972838,19.6514
1335411032838,19.6504
1335411092838,19.6665
1335411152838,19.6849
1335411212838,19.6443
1335411272838,19.6534
1335411332838,19.6301
1335411392838,19.6398
1335411452838,19.5581
1335411512838,19.5553
1335411572838,19.6185
1335411632838,19.6513
1335411692838,19.6601
1335411752838,19.6168
1335411812839,19.6813
1335411872839,19.7273
1335411932839,19.6872
1335411992839,19.6551
1335412052839,19.6573
1335412112838,19.7210
1335412172838,19.6969
1335412232838,19.6958
1335412292838,19.6677
1335412352838,19.6719
1335412412838,19.7237
1335412472838,19.6878
1335412532838,19.7196
1335412592838,19.6486
1335412652838,19.6651
1335412712838,19.6668
1335412772838,19.6925
1335412832849,19.6683
1335412892849,19.6608
1335412952849,19.6173
1335413012849,19.6531
1335413072849,19.6247
1335413132849,19.7323
1335413192849,19.6342
1335413252849,19.6028
1335413312849,19.6631
1335413372849,19.6348
1335413432849,19.6495
1335413492849,19.6302
1335413552849,19.6700
1335413612849,19.6574
1335413672849,19.6780
1335413732849,19.5797
1335413792849,19.5895
1335413852849,19.6456
1335413912849,19.6440
1335413972849,19.5905
1335414032849,19.5919
1335414092849,19.5828
1335414152849,19.5995
1335414212849,19.6254
1335414272849,19.6102
1335414332849,19.5825
1335414392849,19.5795
1335414452849,19.6586
1335414512849,19.6067
1335414572849,19.6228
1335414632849,19.6677
1335414692849,19.5854
1335414752849,19.6296
1335414812849,19.6186
1335414872849,19.6230
1335414932849,19.6573
1335414992849,19.6878
1335415052849,19.5938
1335415112849,19.6340
1335415172849,19.5876
1335415232849,19.6145
1335415292849,19.6139
1335415352849,19.6618
1335415412849,19.5543
1335415472849,19.5883
1335415532849,19.6330
1335415592849,19.5830
1335415652849,19.5885
1335415712849,19.6160
1335415772849,19.6159
1335415832849,19.6019
1335415892849,19.5926
1335415952849,19.6998
1335416012849,19.6125
1335416072849,19.6202
1335416132849,19.5879
1335416192849,19.7388
1335416252849,19.6418
1335416312849,19.6140
1335416372849,19.6865
1335416432860,19.6614
1335416492860,19.6702
1335416552860,19.6796
1335416612860,19.6442
1335416672860,19.6991
1335416732860,19.6975
1335416792860,19.7839
1335416852860,19.7012
1335416912860,19.6811
1335416972860,19.7167
1335417032860,19.7011
1335417092860,19.6702
1335417152860,19.7379
1335417212860,19.7142
1335417272860,19.6674
1335417332860,19.7224
1335417392860,19.7964
1335417452860,19.7632
1335417512860,19.7092
1335417572860,19.7376
1335417632860,19.6800
1335417692860,19.6955
1335417752860,19.7262
1335417812860,19.7432
1335417872860,19.7116
1335417932860,19.7336
1335417992860,19.7129
1335418052860,19.7108
1335418112860,19.7855
1335418172860,19.6904
1335418232860,19.7384
1335418292860,19.7652
1335418352860,19.7914
1335418412860,19.7824
1335418472860,19.7701
1335418532860,19.8105
1335418592860,19.8174
1335418652860,19.7918
1335418712860,19.7748
1335418772860,19.8603
1335418832860,19.8415
1335418892859,19.8341
1335418952860,19.8348
1335419012860,19.7789
1335419072860,19.7781
1335419132860,19.8078
1335419192860,19.7745
1335419252860,19.7914
1335419312860,19.8903
1335419372860,19.7894
1335419432860,19.8453
1335419492860,19.8462
1335419552860,19.8552
1335419612860,19.8892
1335419672860,19.7909
1335419732860,19.8540
1335419792860,19.8100
1335419852860,19.8472
1335419912860,19.8899
1335419972860,19.8934
1335420032870,19.8647
1335420092870,19.8442
1335420152870,19.8724
1335420212870,19.9263
1335420272870,19.8770
1335420332870,19.8580
1335420392870,19.8533
1335420452870,19.8014
1335420512870,19.8744
1335420572870,19.8201
1335420632870,19.8117
1335420692870,19.8907
1335420752870,19.8340
1335420812870,19.8359
1335420872870,19.8342
1335420932870,19.8320
1335420992870,19.7748
1335421052870,19.7702
1335421112870,19.7626
1335421172870,19.8197
1335421232870,19.7838
1335421292870,19.7576
1335421352870,19.7858
1335421412870,19.7759
1335421472870,19.7526
1335421532870,19.8267
1335421592870,19.7614
1335421652870,19.8001
1335421712870,19.7305
1335421772870,19.7428
1335421832870,19.8104
1335421892870,19.7544
1335421952870,19.7617
1335422012870,19.7064
1335422072870,19.7043
1335422132870,19.6629
1335422192870,19.7057
1335422252870,19.7079
1335422312870,19.6740
1335422372870,19.6767
1335422432870,19.6953
1335422492870,19.6914
1335422552870,19.7236
1335422612870,19.6570
1335422672870,19.6676
1335422732870,19.7031
1335422792870,19.6424
1335422852870,19.6720
1335422912870,19.6837
1335422972870,19.6594
1335423032870,19.6604
1335423092870,19.6527
1335423152870,19.6567
1335423212870,19.7114
1335423272870,19.7007
1335423332870,19.6373
1335423392870,19.6050
1335423452870,19.6536
1335423512870,19.6009
1335423572870,19.6416
1335423632880,19.6374
1335423692880,19.6771
1335423752880,19.6355
1335423812880,19.6491
1335423872880,19.6055
1335423932880,19.6288
1335423992880,19.6382
1335424052880,19.6994
1335424112880,19.6238
1335424172880,19.6897
1335424232880,19.6126
1335424292880,19.6095
1335424352880,19.6371
1335424412880,19.6686
1335424472880,19.6430
1335424532880,19.5845
1335424592880,19.6737
1335424652880,19.6315
1335424712880,19.6259
1335424772880,19.6216
1335424832880,19.5662
1335424892880,19.6258
1335424952880,19.6746
1335425012880,19.5791
1335425072880,19.5553
1335425132880,19.5732
1335425192880,19.5552
1335425252880,19.5420
1335425312880,19.5247
1335425372880,19.5640
1335425432880,19.5556
1335425492880,19.5108
1335425552880,19.5425
1335425612880,19.5366
1335425672880,19.6135
1335425732880,19.5508
1335425792880,19.5672
1335425852880,19.5659
1335425912880,19.8269
1335425972880,19.5798
1335426032880,19.5628
1335426092880,19.5327
1335426152880,19.5842
1335426212880,19.5678
1335426272880,19.5244
1335426332880,19.5437
1335426392880,19.5857
1335426452880,19.6533
1335426512880,19.6334
1335426572880,19.6976
1335426632880,19.6657
1335426692880,19.6216
1335426752880,19.6457
1335426812880,19.7048
1335426872880,19.7091
1335426932880,19.6237
1335426992880,19.6596
1335427052880,19.6679
1335427112880,19.6234
1335427172880,19.6671
1335427232891,19.6643
1335427292891,19.6379
1335427352891,19.5723
1335427412891,19.6320
1335427472891,19.5396
1335427532891,19.6355
1335427592891,19.6073
1335427652891,19.6381
1335427712891,19.6402
1335427772891,19.5705
1335427832891,19.6409
1335427892891,19.6672
1335427952891,19.7268
1335428012891,19.6105
1335428072891,19.5803
1335428132891,19.6251
1335428192891,19.6762
1335428252891,19.5880
1335428312891,19.6876
1335428372891,19.6385
1335428432891,19.6095
1335428492891,19.6111
1335428552891,19.5919
1335428612891,19.5913
1335428672891,19.6227
1335428732891,19.5996
1335428792891,19.5808
1335428852891,19.5774
1335428912891,19.5670
1335428972891,19.5506
1335429032891,19.5806
1335429092891,19.5778
1335429152891,19.5325
1335429212891,19.5601
1335429272891,19.5903
1335429332891,19.5561
1335429392891,19.5499
1335429452891,19.5710
1335429512891,19.5720
1335429572891,19.5687
1335429632891,19.5438
1335429692891,19.4904
1335429752891,19.5291
1335429812891,19.4572
1335429872891,19.5370
1335429932891,19.5664
1335429992891,19.5616
1335430052891,19.5686
1335430112891,19.5481
1335430172891,19.5146
1335430232891,19.5189
1335430292891,19.5691
1335430352891,19.5558
1335430412891,19.5949
1335430472891,19.6475
1335430532891,19.6287
1335430592891,19.6110
1335430652891,19.6430
1335430712891,19.6650
1335430772891,19.6230
1335430832901,19.6020
1335430892901,19.5798
1335430952901,19.5638
1335431012901,19.5877
1335431072901,19.5917
1335431132901,19.5579
1335431192901,19.5129
1335431252901,19.5432
1335431312901,19.5513
1335431372901,19.5396
1335431432901,19.4814
1335431492901,19.5064
1335431552901,19.5433
1335431612901,19.6874
1335431672901,19.6185
1335431732901,19.7249
1335431792901,19.7253
1335431852901,19.7515
1335431912901,19.7021
1335431972901,19.6993
1335432032901,19.7232
1335432092901,19.6790
1335432152901,19.6616
1335432212901,19.6905
1335432272901,19.6668
1335432332901,19.6108
1335432392901,19.6920
1335432452901,19.6428
1335432512901,19.6398
1335432572901,19.6290
1335432632901,19.6473
1335432692901,19.6610
1335432752901,19.6272
1335432812901,19.6497
1335432872901,19.6577
1335432932901,19.6394
1335432992901,19.6298
1335433052901,19.6502
1335433112901,19.6479
1335433172901,19.6686
1335433232901,19.6639
1335433292901,19.6494
1335433352901,19.6324
1335433412901,19.6480
1335433472901,19.7063
1335433532901,19.7230
1335433592901,19.6964
1335433652901,19.6808
1335433712901,19.6364
1335433772901,19.6380
1335433832901,19.6537
1335433892901,19.6843
1335433952901,19.6729
1335434012901,19.6076
1335434072901,19.6174
1335434132901,19.5872
1335434192901,19.6334
1335434252901,19.6502
1335434312901,19.5931
1335434372901,19.5068
1335434432912,19.5918
1335434492912,19.6203
1335434552912,19.5715
1335434612912,19.6210
1335434672912,19.6100
1335434732912,19.6275
1335434792912,19.6658
1335434852912,19.5986
1335434912912,19.6090
1335434972912,19.5460
1335435032912,19.6248
1335435092912,19.6068
1335435152912,19.5260
1335435212912,19.5905
1335435272912,19.5839
1335435332912,19.5386
1335435392912,19.5947
1335435452912,19.5588
1335435512912,19.5779
1335435572912,19.5716
1335435632912,19.5467
1335435692912,19.5386
1335435752912,19.5573
1335435812912,19.5775
1335435872912,19.5377
1335435932912,19.5046
1335435992912,19.5742
1335436052912,19.5401
1335436112912,19.5207
1335436172912,19.5807
1335436232912,19.5513
1335436292912,19.5438
1335436352912,19.5293
1335436412912,19.5602
1335436472912,19.5621
1335436532912,19.5478
1335436592912,19.5113
1335436652912,19.4897
1335436712912,19.5052
1335436772912,19.5076
1335436832912,19.4922
1335436892912,19.5078
1335436952912,19.5631
1335437012912,19.5447
1335437072912,19.5100
1335437132912,19.4989
1335437192912,19.4683
1335437252912,19.5057
1335437312912,19.5471
1335437372912,19.5312
1335437432912,19.5447
1335437492912,19.6289
1335437552912,19.5779
1335437612912,19.5878
1335437672912,19.5603
1335437732912,19.4874
1335437792912,19.5968
1335437852912,19.6124
1335437912912,19.5455
1335437972912,19.5693
1335438032922,19.5669
1335438092922,19.6023
1335438152922,19.5380
1335438212922,19.5783
1335438272922,19.5465
1335438332922,19.5046
1335438392922,19.5385
1335438452922,19.5277
1335438512922,19.5170
1335438572922,19.5483
1335438632922,19.5370
1335438692922,19.5405
1335438752922,19.6169
1335438812922,19.6227
1335438872922,19.5899
1335438932922,19.5221
1335438992922,19.5838
1335439052922,19.6004
1335439112922,19.6272
1335439172922,19.6425
1335439232922,19.6625
1335439292922,19.6223
1335439352922,19.6707
1335439412922,19.5802
1335439472922,19.6561
1335439532922,19.6097
1335439592922,19.6500
1335439652922,19.6390
1335439712922,19.5643
1335439772922,19.6084
1335439832922,19.5986
1335439892922,19.5849
1335439952922,19.5905
1335440012922,19.6130
1335440072922,19.6604
1335440132922,19.6504
1335440192922,19.6487
1335440252922,19.5614
1335440312922,19.6475
1335440372922,19.6535
1335440432922,19.6128
1335440492922,19.6146
1335440552922,19.6195
1335440612922,19.6046
1335440672922,19.6028
1335440732922,19.5754
1335440792922,19.5802
1335440852922,19.5865
1335440912922,19.5670
1335440972922,19.6295
1335441032922,19.5506
1335441092922,19.6125
1335441152922,19.6313
1335441212922,19.6012
1335441272922,19.5909
1335441332922,19.6313
1335441392922,19.6360
1335441452922,19.6023
1335441512922,19.6460
1335441572922,19.5748
1335441632932,19.5937
1335441692932,19.5794
1335441752932,19.6367
1335441812932,19.6379
1335441872932,19.6093
1335441932932,19.6590
1335441992932,19.6016
1335442052932,19.6349
1335442112932,19.6325
1335442172932,19.6036
1335442232932,19.5686
1335442292932,19.6473
1335442352932,19.6512
1335442412932,19.6300
1335442472932,19.5706
1335442532932,19.6490
1335442592932,19.5952
1335442652932,19.6062
1335442712932,19.6315
1335442772932,19.5779
1335442832932,19.6071
1335442892932,19.5822
1335442952932,19.6311
1335443012932,19.5561
1335443072932,19.6524
1335443132932,19.6023
1335443192932,19.6114
1335443252932,19.6382
1335443312932,19.5804
1335443372932,19.5727
1335443432932,19.6095
1335443492932,19.5928
1335443552932,19.5596
1335443612932,19.5826
1335443672932,19.5897
1335443732932,19.5523
1335443792932,19.5988
1335443852932,19.5123
1335443912932,19.5637
1335443972932,19.6337
1335444032932,19.5227
1335444092932,19.5688
1335444152932,19.5400
1335444212932,19.5705
1335444272932,19.5599
1335444332932,19.5319
1335444392932,19.5796
1335444452932,19.5878
1335444512932,19.6273
1335444572932,19.5332
1335444632932,19.5228
1335444692932,19.6115
1335444752932,19.5811
1335444812932,19.6435
1335444872932,19.5528
1335444932932,19.6214
1335444992932,19.6514
1335445052932,19.6435
1335445112932,19.6652
1335445172932,19.5668
1335445232942,19.6897
1335445292942,19.6469
1335445352942,19.6177
1335445412942,19.6172
1335445472942,19.6664
1335445532942,19.6098
1335445592942,19.6018
1335445652942,19.6093
1335445712942,19.6524
1335445772942,19.5932
1335445832942,19.5803
1335445892942,19.6730
1335445952942,19.5965
1335446012942,19.5661
1335446072942,19.6288
1335446132942,19.6599
1335446192942,19.6122
1335446252943,19.6112
1335446312943,19.5773
1335446372943,19.6102
1335446432943,19.6580
1335446492943,19.5742
1335446552943,19.6043
1335446612942,19.5658
1335446672942,19.5067
1335446732942,19.5633
1335446792942,19.6342
1335446852942,19.6677
1335446912942,19.5627
1335446972942,19.6145
1335447032942,19.5990
1335447092942,19.5719
1335447152942,19.5387
1335447212942,19.5976
1335447272942,19.6467
1335447332942,19.6441
1335447392942,19.6241
1335447452942,19.6713
1335447512942,19.6460
1335447572942,19.6148
1335447632943,19.6669
1335447692943,19.5603
1335447752943,19.6668
1335447812943,19.6284
1335447872943,19.5875
1335447932942,19.6926
1335447992942,19.6422
1335448052942,19.6919
1335448112942,19.6424
1335448172942,19.6805
1335448232942,19.6898
1335448292942,19.7035
1335448352942,19.6802
1335448412942,19.6761
1335448472942,19.6297
1335448532942,19.6327
1335448592942,19.6630
1335448652942,19.7106
1335448712942,19.6621
1335448772942,19.6386
1335448832953,19.6437
1335448892953,19.6227
1335448952953,19.6342
1335449012953,19.6183
1335449072953,19.6340
1335449132953,19.6412
1335449192953,19.6096
1335449252953,19.6636
1335449312953,19.6062
1335449372953,19.6400
1335449432953,19.6371
1335449492953,19.5582
1335449552953,19.6318
1335449612953,19.6605
1335449672953,19.6444
1335449732953,19.6622
1335449792953,19.6513
1335449852953,19.6445
1335449912953,19.6490
1335449972953,19.6505
1335450032953,19.6468
1335450092953,19.6743
1335450152953,19.6306
1335450212953,19.6669
1335450272953,19.5935
1335450332953,19.6713
1335450392953,19.6613
1335450452953,19.5928
1335450512953,19.6048
1335450572953,19.6456
1335450632953,19.6205
1335450692953,19.6407
1335450752953,19.6429
1335450812953,19.6420
1335450872953,19.5481
1335450932953,19.5711
1335450992953,19.5992
1335451052953,19.6048
1335451112953,19.5937
1335451172953,19.5878
1335451232953,19.6054
1335451292953,19.5723
1335451352953,19.5352
1335451412953,19.6125
1335451472953,19.6120
1335451532953,19.6024
1335451592953,19.6330
1335451652953,19.6380
1335451712953,19.5604
1335451772953,19.5318
1335451832953,19.5665
1335451892953,19.5196
1335451952953,19.5395
1335452012953,19.6320
1335452072953,19.5790
1335452132953,19.6173
1335452192953,19.6393
1335452252953,19.6189
1335452312953,19.6623
1335452372953,19.6234
1335452432963,19.6000
1335452492963,19.5755
1335452552963,19.6757
1335452612963,19.6267
1335452672963,19.6188
1335452732963,19.7653
1335452792963,19.7507
1335452852963,19.7428
1335452912963,19.6829
1335452972963,19.6699
1335453032963,19.6875
1335453092963,19.6279
1335453152963,19.7036
1335453212963,19.6292
1335453272963,19.7676
1335453332963,19.7267
1335453392963,19.7157
1335453452963,19.7030
1335453512963,19.7223
1335453572963,19.6450
1335453632963,19.6723
1335453692963,19.6657
1335453752963,19.7492
1335453812963,19.7428
1335453872963,19.7918
1335453932963,19.7805
1335453992963,19.7162
1335454052963,19.6698
1335454112963,19.7065
1335454172963,19.7211
1335454232963,19.6806
1335454292963,19.6958
1335454352963,19.6771
1335454412963,19.6458
1335454472963,19.6347
1335454532963,19.6115
1335454592963,19.5811
1335454652963,19.6218
1335454712963,19.6250
1335454772963,19.6713
1335454832963,19.6379
1335454892963,19.6638
1335454952963,19.6616
1335455012963,19.6232
1335455072963,19.7178
1335455132963,19.6763
1335455192963,19.6792
1335455252963,19.6718
1335455312963,19.7105
1335455372963,19.6407
1335455432963,19.6633
1335455492963,19.6664
1335455552963,19.7492
1335455612963,19.6485
1335455672963,19.6300
1335455732963,19.6378
1335455792963,19.5871
1335455852963,19.6328
1335455912963,19.6171
1335455972963,19.5898
1335456032973,19.6800
1335456092973,19.6411
1335456152973,19.6955
1335456212973,19.6348
1335456272973,19.6962
1335456332973,19.6767
1335456392973,19.6624
1335456452973,19.6530
1335456512973,19.5743
1335456572973,19.6031
1335456632973,19.6908
1335456692973,19.6244
1335456752973,19.6056
1335456812973,19.6533
1335456872973,19.6299
1335456932973,19.7063
1335456992973,19.6693
1335457052973,19.6392
1335457112973,19.6899
1335457172973,19.6098
1335457232973,19.6559
1335457292973,19.6068
1335457352973,19.6309
1335457412973,19.6567
1335457472973,19.6806
1335457532973,19.6978
1335457592973,19.7084
1335457652973,19.6845
1335457712973,19.6879
1335457772973,19.6653
1335457832973,19.6594
1335457892973,19.7171
1335457952973,19.7394
1335458012973,19.7242
1335458072973,19.7081
1335458132973,19.7098
1335458192973,19.7203
1335458252973,19.6906
1335458312973,19.7671
1335458372973,19.7330
1335458432973,19.6752
1335458492973,19.6975
1335458552973,19.7596
1335458612973,19.7182
1335458672973,19.6887
1335458732973,19.6865
1335458792973,19.7461
1335458852973,19.7068
1335458912973,19.6724
1335458972973,19.6902
1335459032973,19.6950
1335459092973,19.7469
1335459152973,19.6715
1335459212973,19.6865
1335459272973,19.7289
1335459332973,19.7041
1335459392973,19.6817
1335459452973,19.7042
1335459512973,19.6533
1335459572973,19.6166
1335459632983,19.6032
1335459692983,19.6117
1335459752983,19.6395
1335459812983,19.6386
1335459872983,19.5921
1335459932983,19.7262
1335459992983,19.7281
1335460052983,19.6101
1335460112983,19.7244
1335460172983,19.6597
1335460232983,19.6920
1335460292983,19.6554
1335460352983,19.6806
1335460412983,19.6918
1335460472983,19.5986
1335460532983,19.6706
1335460592983,19.7240
1335460652983,19.7081
1335460712983,19.7026
1335460772983,19.7059
1335460832983,19.6898
1335460892983,19.6910
1335460952983,19.7394
1335461012983,19.7173
1335461072983,19.6574
1335461132983,19.7345
1335461192983,19.6558
1335461252983,19.6892
1335461312983,19.6523
1335461372983,19.7057
1335461432983,19.6723
1335461492983,19.7227
1335461552983,19.6677
1335461612983,19.7205
1335461672983,19.6762
1335461732983,19.7356
1335461792983,19.6928
1335461852983,19.6208
1335461912983,19.6335
1335461972983,19.6711
1335462032983,19.7023
1335462092983,19.6535
1335462152983,19.6819
1335462212983,19.6769
1335462272983,19.6967
1335462332983,19.6886
1335462392983,19.6415
1335462452983,19.6211
1335462512983,19.6751
1335462572983,19.6571
1335462632983,19.6870
1335462692983,19.6713
1335462752983,19.6648
1335462812983,19.6145
1335462872983,19.6600
1335462932983,19.6982
1335462992983,19.6542
1335463052983,19.6428
1335463112983,19.5831
1335463172983,19.5698
1335463232993,19.6554
1335463292993,19.6248
1335463352993,19.6361
1335463412993,19.6105
1335463472993,19.6252
1335463532993,19.6596
1335463592993,19.5471
1335463652993,19.6450
1335463712993,19.6418
1335463772993,19.6029